DLH742A EDDM-RJBB

Flight info

Callsign DLH742A
Flight time N/A
Altitude 23000
Route KIRDI3S/26L KIRDI DCT BUWOQ DCT OBFEZ DCT STEIN DCT TEGRI DCT DINRO DCT UDROS/N0494F370 UM859 KARDE UL851 TBN UG261 NOLGA DCT BARAD M747 LUSAL N199 RASAM L88 METKA B476 DARVA/K0911F370 T898 SUDAR/K0909F390 T898 OGOLI N193 SR L163 TISIB L141 KAMUD/K0904S1190 A468 XKC B215 FKG W188 LIKMI W270 BIVOR/K0902S1250 W270 DKO W69 HUR B339 LADIX W34 VAPGU W100 ORAVA W201 UNSEK A326 DONVO G597 AGAVO/N0491F410 Y644 EGOBA Y697 LANAT Y597 MIHOU Y361 SAEKI Y36 ATMUG
Aircraft B789/H-SDE1E2E3FGHIJ2J3J4J5M1RWXY/LB1D1

Departure

Time 2026-05-04 10:06
Airport Munich Airport (EDDM)

Arrival

Time N/A
Airport Kansai International Airport (RJBB)
Time Latitude Longitude Altitude Speed Heading
2026-05-04 09:14 48.35469 11.79738 1479 ft 0 kts 83°
2026-05-04 09:51 48.35467 11.79715 1486 ft 4 kts 83°
2026-05-04 09:51 48.35464 11.79675 1477 ft 4 kts 83°
2026-05-04 09:52 48.35462 11.79643 1475 ft 4 kts 86°
2026-05-04 09:52 48.35464 11.79605 1475 ft 4 kts 121°
2026-05-04 09:52 48.35481 11.79585 1475 ft 3 kts 173°
2026-05-04 09:52 48.35508 11.79581 1475 ft 3 kts 173°
2026-05-04 09:53 48.35512 11.79580 1475 ft 0 kts 173°
2026-05-04 09:55 48.35504 11.79581 1490 ft 5 kts 173°
2026-05-04 09:56 48.35445 11.79591 1480 ft 12 kts 173°
2026-05-04 09:56 48.35339 11.79610 1486 ft 18 kts 173°
2026-05-04 09:56 48.35197 11.79635 1477 ft 23 kts 173°
2026-05-04 09:56 48.35041 11.79664 1479 ft 22 kts 173°
2026-05-04 09:57 48.34892 11.79691 1477 ft 20 kts 173°
2026-05-04 09:57 48.34803 11.79662 1475 ft 10 kts 248°
2026-05-04 09:57 48.34792 11.79573 1485 ft 9 kts 262°
2026-05-04 09:57 48.34785 11.79458 1485 ft 13 kts 264°
2026-05-04 09:58 48.34774 11.79300 1483 ft 17 kts 262°
2026-05-04 09:58 48.34757 11.79104 1490 ft 21 kts 263°
2026-05-04 09:58 48.34738 11.78871 1477 ft 24 kts 263°
2026-05-04 10:00 48.34603 11.77127 1490 ft 20 kts 263°
2026-05-04 10:00 48.34587 11.76923 1485 ft 19 kts 263°
2026-05-04 10:02 48.34451 11.75145 1477 ft 17 kts 263°
2026-05-04 10:04 48.34155 11.75123 1478 ft 8 kts 152°
2026-05-04 10:04 48.34103 11.75192 1484 ft 11 kts 126°
2026-05-04 10:04 48.34084 11.75296 1486 ft 0 kts 84°
2026-05-04 10:05 48.34095 11.75442 1490 ft 37 kts 83°
2026-05-04 10:05 48.34145 11.76105 1481 ft 89 kts 83°
2026-05-04 10:05 48.34235 11.77260 1479 ft 133 kts 83°
2026-05-04 10:06 48.34355 11.78835 1489 ft 170 kts 84°
2026-05-04 10:06 48.34503 11.80719 1691 ft 182 kts 80°
2026-05-04 10:06 48.34663 11.82477 2284 ft 162 kts 83°
2026-05-04 10:08 48.35611 11.93515 3986 ft 202 kts 91°
2026-05-04 10:08 48.35274 11.95637 4236 ft 213 kts 105°
2026-05-04 10:08 48.34921 11.97893 4525 ft 230 kts 102°
2026-05-04 10:08 48.34547 12.00305 4901 ft 243 kts 103°
2026-05-04 10:09 48.34131 12.02829 5305 ft 254 kts 104°
2026-05-04 10:09 48.33698 12.05431 5886 ft 258 kts 105°
2026-05-04 10:09 48.33259 12.08079 6425 ft 264 kts 105°
2026-05-04 10:09 48.32813 12.10789 6909 ft 270 kts 105°
2026-05-04 10:10 48.32359 12.13545 7441 ft 273 kts 105°
2026-05-04 10:10 48.31896 12.16335 7972 ft 277 kts 105°
2026-05-04 10:10 48.31427 12.19154 8520 ft 280 kts 105°
2026-05-04 10:10 48.30953 12.22006 9081 ft 283 kts 105°
2026-05-04 10:11 48.30474 12.24886 9628 ft 286 kts 106°
2026-05-04 10:11 48.29989 12.27792 10133 ft 289 kts 106°
2026-05-04 10:11 48.29488 12.30790 10368 ft 303 kts 106°
2026-05-04 10:11 48.28960 12.33932 10575 ft 318 kts 106°
2026-05-04 10:12 48.28409 12.37225 10797 ft 332 kts 106°
2026-05-04 10:12 48.27833 12.40656 11020 ft 346 kts 106°
2026-05-04 10:12 48.27232 12.44224 11237 ft 359 kts 106°
2026-05-04 10:12 48.26609 12.47921 11503 ft 370 kts 106°
2026-05-04 10:13 48.25972 12.51693 11979 ft 375 kts 106°
2026-05-04 10:13 48.25326 12.55505 12487 ft 379 kts 106°